Location: ?astrovice
(49.6513°N, 14.9287°E)
Time: 12:21:37
(UTC+00:00)

Abrixas rocket - Pass Details

Date: 09 April 2020
Orbit: 345 x 352 km, 48.4° (Epoch: 27 May)

Event Time Altitude Azimuth Distance (km) Brightness Sun altitude
Rises 18:26:44 0° 276° (W) 2,159 7.7 -7.3°
Reaches altitude 10° 18:28:47 10° 271° (W) 1,317 6.1 -7.6°
Maximum altitude 18:31:38 47° 195° (SSW) 475 2.5 -8.0°
Enters shadow 18:34:12 12° 122° (ESE) 1,208 3.9 -8.4°
